Flag for India Weather past 2 weeks in Vellore, Tamil Nadu, India

Now
84 °F

Passing clouds.


Feels Like: 91 °F
Forecast: 75 / 91 °F
Wind: No wind

Location: Madras / Minambakkam

Current Time: Sep 20, 2014 at 9:41:29 PM

Latest Report: Sep 20, 2014 at 6:40 PM


Visibility: 4 mi

Pressure: 29.65 "Hg

Humidity: 70%

Dew point: 73 °F

Location of VelloreLocation

Historic Weather in Vellore — Graph

°F

Vellore temperature yesterday

Maximum temperature yesterday: 93 °F (at 1:10 PM)
Minimum temperature yesterday: 79 °F (at 12:40 AM)
Average temperature yesterday: 85 °F

Past Weeks' High & Low Weather Summary

 TemperatureHumidityPressure
High99 °F (Sep 9, 4:10 PM)100% (Sep 15, 10:10 PM)29.83 "Hg (Sep 15, 10:10 PM)
Low73 °F (Sep 15, 10:10 PM)39% (Sep 9, 4:10 PM)29.56 "Hg (Sep 16, 3:40 PM)
Average84 °F74%29.70 "Hg
* Reported Sep 5 6:40 PM — Sep 20 6:40 PM, Vellore, Weather by CustomWeather, © 2014

Note: Actual official high and low records may vary slightly from our data, if they occured in-between our weather recording intervals... More about our weather records

Advertising

Vellore weather history for previous 24 hours

 ConditionsComfort  
Time TempWeatherWind HumidityBarometerVisibility
6:40 PM
Sep 20
84 °FPassing clouds.No wind70%29.65 "Hg4 mi
6:10 PM86 °FPassing clouds.No wind66%29.62 "Hg4 mi
5:40 PM88 °FScattered clouds.5 mph62%29.62 "Hg4 mi
5:10 PM88 °FScattered clouds.6 mph62%29.62 "Hg4 mi
4:40 PM88 °FPartly sunny.6 mph62%29.59 "Hg4 mi
4:10 PM88 °FBroken clouds.5 mph62%29.62 "Hg4 mi
3:40 PM88 °FBroken clouds.7 mph62%29.62 "Hg4 mi
3:10 PM90 °FPartly sunny.12 mph59%29.62 "Hg5 mi
2:40 PM90 °FPartly sunny.9 mph59%29.62 "Hg5 mi
2:10 PM91 °FPartly sunny.12 mph56%29.62 "Hg5 mi
1:40 PM91 °FPartly sunny.12 mph56%29.65 "Hg5 mi
1:10 PM91 °FScattered clouds.12 mph56%29.65 "Hg5 mi
12:40 PM91 °FScattered clouds.9 mph56%29.68 "Hg5 mi
12:10 PM91 °FScattered clouds.9 mph56%29.68 "Hg5 mi
10:10 AM88 °FClear.12 mph66%29.71 "Hg5 mi
9:40 AM88 °FClear.12 mph66%29.74 "Hg5 mi
9:10 AM86 °FClear.10 mph70%29.74 "Hg5 mi
8:40 AM86 °FPassing clouds.9 mph70%29.71 "Hg4 mi
8:10 AM84 °FPassing clouds.7 mph74%29.71 "Hg4 mi
7:40 AM82 °FPassing clouds.8 mph79%29.71 "Hg4 mi
6:40 AM79 °FPassing clouds.6 mph84%29.68 "Hg4 mi
6:10 AM79 °FPassing clouds.7 mph84%29.68 "Hg4 mi
5:40 AM79 °FPassing clouds.7 mph84%29.65 "Hg4 mi
5:10 AM79 °FPassing clouds.7 mph84%29.65 "Hg4 mi
4:40 AM79 °FPassing clouds.9 mph84%29.65 "Hg4 mi
4:10 AM79 °FPassing clouds.9 mph84%29.65 "Hg4 mi
3:40 AM79 °FPartly cloudy.14 mph84%29.65 "Hg4 mi
2:40 AM79 °FPartly cloudy.12 mph89%29.65 "Hg4 mi
2:10 AM81 °FPartly cloudy.12 mph84%29.65 "Hg4 mi
1:40 AM81 °FPartly cloudy.9 mph84%29.65 "Hg4 mi
1:10 AM81 °FPartly cloudy.14 mph84%29.68 "Hg4 mi
12:40 AM82 °FPartly cloudy.14 mph79%29.68 "Hg4 mi
12:10 AM82 °FPartly cloudy.9 mph79%29.71 "Hg4 mi
11:40 PM
Sep 19
82 °FPartly cloudy.8 mph79%29.71 "Hg4 mi
11:10 PM82 °FPartly cloudy.9 mph79%29.71 "Hg4 mi
10:40 PM84 °FPartly cloudy.8 mph74%29.71 "Hg4 mi
10:10 PM84 °FPartly cloudy.8 mph74%29.74 "Hg4 mi
9:40 PM84 °FPartly cloudy.6 mph74%29.74 "Hg4 mi
9:10 PM84 °FPartly cloudy.7 mph74%29.74 "Hg4 mi
Weather by CustomWeather, © 2014

See weather overviewHow to use our weather pages